| time (UTC) | temp F | wind direction | speed MPH | gust MPH | rain 1hr in | rain 24hr in | rain mn in | humidity % | barometer mb |
| 20260903093331 | 64 | 46 | 2.0 | 2.0 | 0.00 | 0.02 | 0.02 | 97 | 1019.2 |
| 20260903092826 | 64 | 46 | 2.0 | 2.0 | 0.00 | 0.02 | 0.02 | 97 | 1019.0 |
| 20260903092320 | 64 | 133 | 2.0 | 2.0 | 0.00 | 0.02 | 0.02 | 97 | 1019.1 |
| 20260903091819 | 64 | 133 | 2.0 | 2.0 | 0.00 | 0.02 | 0.02 | 97 | 1019.1 |
| 20260903091313 | 64 | 133 | 2.0 | 2.0 | 0.00 | 0.02 | 0.02 | 97 | 1019.0 |
| 20260903090809 | 64 | 133 | 2.0 | 2.0 | 0.00 | 0.02 | 0.02 | 97 | 1019.1 |
| 20260903090309 | 64 | 158 | 3.0 | 3.0 | 0.00 | 0.02 | 0.02 | 97 | 1019.0 |
| 20260903085807 | 64 | 117 | 3.0 | 5.0 | 0.00 | 0.02 | 0.02 | 97 | 1019.3 |
| 20260903085305 | 64 | 117 | 3.0 | 5.0 | 0.00 | 0.02 | 0.02 | 97 | 1018.7 |
| 20260903084800 | 64 | 116 | 2.0 | 3.0 | 0.00 | 0.02 | 0.02 | 97 | 1019.0 |
| 20260903084254 | 64 | 154 | 3.0 | 3.0 | 0.00 | 0.02 | 0.02 | 97 | 1019.0 |
| 20260903083750 | 65 | 165 | 1.0 | 1.0 | 0.00 | 0.02 | 0.02 | 97 | 1019.2 |
| 20260903083245 | 64 | 143 | 1.0 | 1.0 | 0.00 | 0.02 | 0.02 | 97 | 1019.1 |
| 20260903082744 | 65 | 127 | 2.0 | 2.0 | 0.00 | 0.02 | 0.02 | 97 | 1019.1 |
| 20260903082240 | 65 | 127 | 1.0 | 1.0 | 0.00 | 0.02 | 0.02 | 96 | 1019.2 |
| 20260903081739 | 65 | 127 | 1.0 | 1.0 | 0.00 | 0.02 | 0.02 | 96 | 1018.9 |
| 20260903081235 | 65 | 127 | 1.0 | 1.0 | 0.00 | 0.02 | 0.02 | 96 | 1019.2 |
| 20260903080732 | 65 | 104 | 1.0 | 1.0 | 0.00 | 0.02 | 0.02 | 96 | 1019.1 |
| 20260903080229 | 65 | 72 | 0.0 | 0.0 | 0.00 | 0.02 | 0.02 | 96 | 1019.2 |
| 20260903075728 | 66 | 205 | 0.0 | 0.0 | 0.00 | 0.02 | 0.02 | 96 | 1019.2 |
| 20260903075223 | 66 | 205 | 0.0 | 0.0 | 0.00 | 0.02 | 0.02 | 96 | 1019.1 |
| 20260903074722 | 66 | 205 | 0.0 | 0.0 | 0.00 | 0.02 | 0.02 | 96 | 1019.1 |
| 20260903074218 | 66 | 205 | 0.0 | 0.0 | 0.00 | 0.02 | 0.02 | 96 | 1019.6 |
| 20260903073713 | 66 | 205 | 0.0 | 0.0 | 0.00 | 0.02 | 0.02 | 96 | 1019.2 |
| 20260903073208 | 66 | 267 | 0.0 | 0.0 | 0.00 | 0.02 | 0.02 | 96 | 1019.2 |
| 20260903072704 | 0 | 0.0 | 0.0 | 0.00 | 0.00 | 0.00 | 1019.6 | ||
| 20260903072200 | 0 | 0.0 | 0.0 | 0.00 | 0.00 | 0.00 | 1019.2 | ||
| 20260903071656 | 0 | 0.0 | 0.0 | 0.00 | 0.00 | 0.00 | 1019.4 | ||
| 20260903071151 | 64 | 183 | 1.0 | 1.0 | 0.00 | 0.02 | 0.02 | 97 | 1019.3 |
| 20260903070646 | 64 | 183 | 1.0 | 1.0 | 0.00 | 0.02 | 0.02 | 97 | 1019.3 |
| 20260903070142 | 64 | 183 | 1.0 | 1.0 | 0.00 | 0.02 | 0.02 | 97 | 1019.4 |
| 20260903065641 | 64 | 183 | 1.0 | 1.0 | 0.00 | 0.02 | 0.02 | 97 | 1019.5 |
| 20260903065136 | 64 | 183 | 1.0 | 1.0 | 0.00 | 0.02 | 0.02 | 97 | 1019.6 |
| 20260903064635 | 64 | 183 | 1.0 | 1.0 | 0.00 | 0.02 | 0.02 | 97 | 1019.4 |
| 20260903064130 | 64 | 183 | 1.0 | 1.0 | 0.00 | 0.02 | 0.02 | 97 | 1019.5 |
| 20260903063626 | 64 | 183 | 1.0 | 1.0 | 0.00 | 0.02 | 0.02 | 97 | 1019.3 |
| 20260903063121 | 64 | 183 | 1.0 | 1.0 | 0.00 | 0.02 | 0.02 | 97 | 1019.3 |
| 20260903062617 | 64 | 183 | 1.0 | 1.0 | 0.00 | 0.02 | 0.02 | 97 | 1019.2 |
| 20260903062112 | 64 | 183 | 1.0 | 1.0 | 0.00 | 0.02 | 0.02 | 97 | 1019.2 |
| 20260903061607 | 64 | 183 | 1.0 | 1.0 | 0.00 | 0.02 | 0.02 | 97 | 1019.0 |
| 20260903061106 | 64 | 242 | 0.0 | 1.0 | 0.00 | 0.02 | 0.02 | 96 | 1019.3 |
| 20260903060601 | 64 | 264 | 2.0 | 2.0 | 0.00 | 0.02 | 0.02 | 96 | 1019.1 |
| 20260903060056 | 64 | 357 | 1.0 | 2.0 | 0.00 | 0.02 | 0.02 | 96 | 1018.7 |
| 20260903055554 | 65 | 358 | 3.0 | 3.0 | 0.00 | 0.02 | 0.02 | 96 | 1019.0 |
| 20260903055052 | 65 | 358 | 3.0 | 3.0 | 0.00 | 0.02 | 0.02 | 96 | 1019.1 |
| 20260903054547 | 65 | 358 | 3.0 | 3.0 | 0.00 | 0.02 | 0.02 | 96 | 1018.9 |
| 20260903054043 | 65 | 358 | 3.0 | 3.0 | 0.00 | 0.02 | 0.02 | 96 | 1019.2 |
| 20260903053538 | 65 | 358 | 3.0 | 3.0 | 0.00 | 0.02 | 0.02 | 96 | 1018.9 |
| 20260903053035 | 66 | 23 | 1.0 | 2.0 | 0.00 | 0.02 | 0.02 | 95 | 1019.1 |
| 20260903052530 | 66 | 23 | 1.0 | 2.0 | 0.00 | 0.02 | 0.02 | 95 | 1019.0 |
| 20260903052026 | 66 | 359 | 2.0 | 2.0 | 0.00 | 0.02 | 0.02 | 96 | 1019.1 |
| 20260903051525 | 66 | 359 | 2.0 | 2.0 | 0.00 | 0.02 | 0.02 | 96 | 1019.0 |
| 20260903051021 | 66 | 359 | 2.0 | 2.0 | 0.00 | 0.02 | 0.02 | 96 | 1019.0 |
| 20260903050520 | 66 | 349 | 3.0 | 3.0 | 0.00 | 0.02 | 0.02 | 96 | 1019.0 |
| 20260903050016 | 66 | 1 | 0.0 | 1.0 | 0.00 | 0.02 | 0.02 | 96 | 1019.2 |
| 20260903045510 | 66 | 351 | 0.0 | 0.0 | 0.00 | 0.02 | 0.02 | 96 | 1019.1 |
| 20260903045007 | 66 | 320 | 1.0 | 2.0 | 0.00 | 0.02 | 0.02 | 96 | 1019.3 |
| 20260903044503 | 66 | 124 | 2.0 | 3.0 | 0.00 | 0.02 | 0.02 | 96 | 1019.0 |
| 20260903043958 | 65 | 184 | 2.0 | 5.0 | 0.00 | 0.02 | 0.02 | 96 | 1019.4 |
| 20260903043453 | 65 | 130 | 2.0 | 2.0 | 0.00 | 0.02 | 0.02 | 97 | 1019.5 |
| 20260903042952 | 64 | 273 | 0.0 | 0.0 | 0.00 | 0.02 | 0.02 | 97 | 1019.3 |
| 20260903042448 | 64 | 228 | 0.0 | 0.0 | 0.12 | 0.02 | 0.02 | 98 | 1019.4 |
| 20260903041943 | 64 | 121 | 4.0 | 5.0 | 0.00 | 0.00 | 0.00 | 97 | 1019.4 |
| 20260903041440 | 64 | 121 | 4.0 | 5.0 | 0.00 | 0.00 | 0.00 | 97 | 1019.3 |
| 20260903040935 | 64 | 121 | 4.0 | 5.0 | 0.00 | 0.00 | 0.00 | 97 | 1019.8 |
| 20260903040434 | 64 | 121 | 4.0 | 5.0 | 0.00 | 0.00 | 0.00 | 97 | 1019.7 |
| 20260903035930 | 64 | 121 | 4.0 | 5.0 | 0.00 | 0.17 | 0.17 | 97 | 1019.8 |
| 20260903035425 | 64 | 121 | 4.0 | 5.0 | 0.00 | 0.17 | 0.17 | 97 | 1019.5 |
| 20260903034920 | 64 | 121 | 4.0 | 5.0 | 0.00 | 0.17 | 0.17 | 97 | 1019.7 |
| 20260903034415 | 64 | 121 | 4.0 | 5.0 | 0.00 | 0.17 | 0.17 | 97 | 1019.9 |
| 20260903033910 | 64 | 121 | 4.0 | 5.0 | 0.24 | 0.17 | 0.17 | 97 | 1020.1 |
| 20260903033405 | 64 | 78 | 3.0 | 5.0 | 0.24 | 0.17 | 0.17 | 97 | 1019.6 |
| 20260903032900 | 65 | 121 | 2.0 | 3.0 | 0.00 | 0.13 | 0.13 | 97 | 1020.2 |
| 20260903032356 | 65 | 121 | 2.0 | 3.0 | 0.00 | 0.13 | 0.13 | 97 | 1020.5 |
| 20260903031851 | 65 | 121 | 2.0 | 3.0 | 0.66 | 0.13 | 0.13 | 97 | 1020.3 |
| 20260903031350 | 65 | 148 | 1.0 | 1.0 | 0.00 | 0.02 | 0.02 | 96 | 1020.4 |
| 20260903030846 | 65 | 148 | 1.0 | 1.0 | 0.00 | 0.02 | 0.02 | 96 | 1021.0 |
| 20260903030342 | 65 | 148 | 1.0 | 1.0 | 0.00 | 0.02 | 0.02 | 96 | 1020.7 |
| 20260903025837 | 65 | 148 | 1.0 | 1.0 | 0.00 | 0.02 | 0.02 | 96 | 1021.2 |
| 20260903025332 | 65 | 148 | 1.0 | 1.0 | 0.00 | 0.02 | 0.02 | 96 | 1021.0 |
| 20260903024832 | 65 | 148 | 1.0 | 1.0 | 0.00 | 0.02 | 0.02 | 96 | 1020.9 |
| 20260903024331 | 65 | 148 | 1.0 | 1.0 | 0.00 | 0.02 | 0.02 | 96 | 1020.8 |
| 20260903023822 | 65 | 148 | 1.0 | 1.0 | 0.00 | 0.02 | 0.02 | 96 | 1020.9 |
| 20260903023317 | 65 | 148 | 1.0 | 1.0 | 0.00 | 0.02 | 0.02 | 96 | 1020.8 |
| 20260903022812 | 65 | 148 | 1.0 | 1.0 | 0.00 | 0.02 | 0.02 | 96 | 1020.6 |
| 20260903022310 | 65 | 148 | 1.0 | 1.0 | 0.00 | 0.02 | 0.02 | 96 | 1020.5 |
| 20260903021805 | 65 | 148 | 1.0 | 1.0 | 0.05 | 0.02 | 0.02 | 96 | 1020.8 |
| 20260903021301 | 65 | 99 | 1.0 | 1.0 | 0.05 | 0.02 | 0.02 | 96 | 1020.7 |
| 20260903020800 | 65 | 120 | 3.0 | 5.0 | 0.00 | 0.01 | 0.01 | 96 | 1020.8 |
| 20260903020255 | 65 | 101 | 3.0 | 5.0 | 0.00 | 0.01 | 0.01 | 96 | 1020.7 |
| 20260903015750 | 65 | 181 | 1.0 | 1.0 | 0.07 | 0.01 | 0.01 | 96 | 1020.9 |
| 20260903015246 | 65 | 10 | 0.0 | 0.0 | 0.00 | 0.00 | 0.00 | 95 | 1021.5 |
| 20260903014741 | 65 | 50 | 0.0 | 0.0 | 0.00 | 0.00 | 0.00 | 95 | 1021.4 |
| 20260903014240 | 65 | 19 | 0.0 | 1.0 | 0.00 | 0.00 | 0.00 | 95 | 1022.0 |
| 20260903013736 | 65 | 24 | 0.0 | 1.0 | 0.00 | 0.00 | 0.00 | 95 | 1022.0 |
| 20260903013235 | 65 | 25 | 0.0 | 1.0 | 0.00 | 0.00 | 0.00 | 95 | 1022.1 |
| 20260903012733 | 65 | 298 | 0.0 | 0.0 | 0.00 | 0.00 | 0.00 | 95 | 1022.0 |
| 20260903012228 | 65 | 325 | 0.0 | 1.0 | 0.00 | 0.00 | 0.00 | 95 | 1022.2 |
| 20260903011727 | 65 | 16 | 0.0 | 2.0 | 0.00 | 0.00 | 0.00 | 95 | 1022.0 |
| 20260903011221 | 65 | 44 | 1.0 | 2.0 | 0.00 | 0.00 | 0.00 | 95 | 1021.6 |
| 20260903010712 | 65 | 114 | 2.0 | 2.0 | 0.00 | 0.00 | 0.00 | 95 | 1022.0 |
| 20260903010211 | 66 | 47 | 0.0 | 2.0 | 0.00 | 0.00 | 0.00 | 95 | 1021.7 |
| 20260903005710 | 66 | 36 | 0.0 | 2.0 | 0.00 | 0.00 | 0.00 | 95 | 1021.6 |
| 20260903005205 | 66 | 142 | 5.0 | 6.0 | 0.00 | 0.00 | 0.00 | 95 | 1021.6 |
| 20260903004701 | 65 | 124 | 3.0 | 7.0 | 0.00 | 0.00 | 0.00 | 95 | 1021.7 |
| 20260903004156 | 65 | 101 | 2.0 | 7.0 | 0.00 | 0.00 | 0.00 | 95 | 1021.6 |
| 20260903003652 | 65 | 102 | 2.0 | 5.0 | 0.00 | 0.00 | 0.00 | 95 | 1021.7 |
| 20260903003147 | 65 | 34 | 1.0 | 5.0 | 0.00 | 0.00 | 0.00 | 95 | 1022.1 |
| 20260903002642 | 66 | 161 | 1.0 | 3.0 | 0.00 | 0.00 | 0.00 | 95 | 1021.8 |
| 20260903002136 | 66 | 268 | 0.0 | 1.0 | 0.00 | 0.00 | 0.00 | 95 | 1021.9 |
| 20260903001630 | 66 | 5 | 2.0 | 3.0 | 0.00 | 0.00 | 0.00 | 95 | 1021.8 |
| 20260903001125 | 66 | 53 | 1.0 | 2.0 | 0.00 | 0.00 | 0.00 | 95 | 1021.6 |
| 20260903000621 | 66 | 50 | 0.0 | 1.0 | 0.00 | 0.00 | 0.00 | 95 | 1021.6 |
| 20260903000120 | 66 | 131 | 1.0 | 2.0 | 0.00 | 0.00 | 0.00 | 95 | 1021.2 |
| 20260902235619 | 66 | 131 | 1.0 | 2.0 | 0.00 | 0.00 | 0.00 | 95 | 1021.1 |
| 20260902235114 | 66 | 95 | 1.0 | 3.0 | 0.00 | 0.00 | 0.00 | 95 | 1021.2 |
| 20260902234608 | 66 | 8 | 3.0 | 5.0 | 0.00 | 0.00 | 0.00 | 95 | 1021.4 |
| 20260902234106 | 66 | 130 | 1.0 | 2.0 | 0.00 | 0.00 | 0.00 | 95 | 1021.2 |
| 20260902233602 | 66 | 42 | 2.0 | 3.0 | 0.00 | 0.00 | 0.00 | 95 | 1021.3 |
| 20260902233056 | 66 | 76 | 4.0 | 5.0 | 0.00 | 0.00 | 0.00 | 95 | 1020.6 |
| 20260902232555 | 66 | 149 | 5.0 | 7.0 | 0.00 | 0.00 | 0.00 | 95 | 1020.3 |
| 20260902232050 | 66 | 75 | 2.0 | 6.0 | 0.00 | 0.00 | 0.00 | 95 | 1020.8 |
| 20260902231545 | 66 | 103 | 4.0 | 11.0 | 0.00 | 0.00 | 0.00 | 95 | 1020.4 |
| 20260902231044 | 66 | 78 | 7.0 | 9.0 | 0.00 | 0.00 | 0.00 | 95 | 1020.2 |
| 20260902230545 | 66 | 113 | 4.0 | 13.0 | 0.00 | 0.00 | 0.00 | 95 | 1020.3 |
| 20260902230044 | 66 | 162 | 8.0 | 9.0 | 0.00 | 0.00 | 0.00 | 94 | 1020.8 |
| 20260902225539 | 66 | 129 | 7.0 | 13.0 | 0.00 | 0.00 | 0.00 | 94 | 1020.6 |
| 20260902225039 | 67 | 139 | 4.0 | 9.0 | 0.00 | 0.00 | 0.00 | 94 | 1021.0 |
| 20260902224537 | 67 | 97 | 3.0 | 9.0 | 0.00 | 0.00 | 0.00 | 94 | 1021.1 |
| 20260902224034 | 67 | 124 | 4.0 | 8.0 | 0.00 | 0.00 | 0.00 | 94 | 1021.7 |
| 20260902223530 | 67 | 135 | 3.0 | 7.0 | 0.00 | 0.00 | 0.00 | 94 | 1021.8 |
| 20260902223028 | 67 | 85 | 6.0 | 9.0 | 0.00 | 0.00 | 0.00 | 94 | 1022.0 |
| 20260902222527 | 67 | 74 | 2.0 | 3.0 | 0.00 | 0.00 | 0.00 | 94 | 1022.3 |
| 20260902222026 | 68 | 131 | 3.0 | 6.0 | 0.00 | 0.00 | 0.00 | 94 | 1022.3 |
| 20260902221521 | 68 | 88 | 1.0 | 10.0 | 0.00 | 0.00 | 0.00 | 93 | 1022.3 |
| 20260902221016 | 68 | 166 | 5.0 | 7.0 | 0.00 | 0.00 | 0.00 | 93 | 1022.5 |
| 20260902220511 | 68 | 49 | 7.0 | 9.0 | 0.00 | 0.00 | 0.00 | 93 | 1022.4 |
| 20260902220006 | 68 | 354 | 1.0 | 9.0 | 0.00 | 0.00 | 0.00 | 93 | 1022.6 |
| 20260902215502 | 69 | 41 | 4.0 | 8.0 | 0.00 | 0.00 | 0.00 | 92 | 1022.3 |
| 20260902214958 | 69 | 29 | 1.0 | 6.0 | 0.00 | 0.00 | 0.00 | 93 | 1022.4 |
| 20260902214457 | 69 | 346 | 1.0 | 8.0 | 0.00 | 0.00 | 0.00 | 93 | 1022.5 |
| 20260902213955 | 69 | 67 | 3.0 | 6.0 | 0.00 | 0.00 | 0.00 | 93 | 1022.3 |
| 20260902213452 | 69 | 77 | 1.0 | 6.0 | 0.00 | 0.00 | 0.00 | 93 | 1022.4 |
| 20260902212951 | 69 | 48 | 1.0 | 1.0 | 0.00 | 0.00 | 0.00 | 93 | 1022.5 |
| 20260902212447 | 69 | 36 | 1.0 | 1.0 | 0.00 | 0.00 | 0.00 | 93 | 1022.7 |
| 20260902211943 | 69 | 66 | 1.0 | 1.0 | 0.00 | 0.00 | 0.00 | 92 | 1022.6 |
| 20260902211438 | 70 | 119 | 4.0 | 5.0 | 0.00 | 0.00 | 0.00 | 91 | 1022.5 |
| 20260902210933 | 70 | 104 | 3.0 | 5.0 | 0.00 | 0.00 | 0.00 | 91 | 1022.5 |
| 20260902210428 | 70 | 57 | 1.0 | 1.0 | 0.00 | 0.00 | 0.00 | 91 | 1022.5 |
| 20260902205921 | 70 | 40 | 1.0 | 6.0 | 0.00 | 0.00 | 0.00 | 92 | 1022.4 |
| 20260902205416 | 70 | 80 | 1.0 | 3.0 | 0.00 | 0.00 | 0.00 | 92 | 1022.5 |
| 20260902204911 | 70 | 193 | 0.0 | 2.0 | 0.00 | 0.00 | 0.00 | 92 | 1022.4 |
| 20260902204405 | 70 | 114 | 1.0 | 1.0 | 0.00 | 0.00 | 0.00 | 91 | 1022.9 |
| 20260902203901 | 70 | 118 | 3.0 | 5.0 | 0.00 | 0.00 | 0.00 | 91 | 1022.7 |
| 20260902203356 | 69 | 156 | 1.0 | 5.0 | 0.00 | 0.00 | 0.00 | 92 | 1022.6 |
| 20260902202850 | 70 | 106 | 3.0 | 7.0 | 0.00 | 0.00 | 0.00 | 91 | 1022.6 |
| 20260902202346 | 70 | 176 | 1.0 | 3.0 | 0.00 | 0.00 | 0.00 | 92 | 1022.8 |
| 20260902201843 | 70 | 118 | 5.0 | 7.0 | 0.00 | 0.00 | 0.00 | 91 | 1022.9 |
| 20260902201342 | 70 | 341 | 1.0 | 2.0 | 0.00 | 0.00 | 0.00 | 92 | 1022.8 |
| 20260902200837 | 70 | 31 | 1.0 | 1.0 | 0.00 | 0.00 | 0.00 | 92 | 1022.8 |
| 20260902200333 | 69 | 63 | 1.0 | 6.0 | 0.00 | 0.00 | 0.00 | 92 | 1022.9 |
| 20260902195828 | 69 | 34 | 1.0 | 3.0 | 0.00 | 0.00 | 0.00 | 93 | 1023.0 |
| 20260902195327 | 69 | 102 | 4.0 | 5.0 | 0.00 | 0.00 | 0.00 | 92 | 1022.8 |
| 20260902194822 | 69 | 44 | 2.0 | 6.0 | 0.00 | 0.00 | 0.00 | 91 | 1022.9 |
| 20260902194317 | 69 | 32 | 3.0 | 6.0 | 0.00 | 0.00 | 0.00 | 92 | 1023.1 |
| 20260902193812 | 69 | 116 | 1.0 | 3.0 | 0.00 | 0.00 | 0.00 | 92 | 1023.2 |
| 20260902193308 | 70 | 72 | 3.0 | 3.0 | 0.00 | 0.00 | 0.00 | 91 | 1023.4 |
| 20260902192807 | 70 | 248 | 2.0 | 5.0 | 0.00 | 0.00 | 0.00 | 91 | 1023.1 |
| 20260902192307 | 70 | 80 | 2.0 | 6.0 | 0.00 | 0.00 | 0.00 | 91 | 1023.2 |
| 20260902191805 | 70 | 24 | 3.0 | 5.0 | 0.00 | 0.00 | 0.00 | 91 | 1023.4 |
| 20260902191300 | 70 | 147 | 3.0 | 6.0 | 0.00 | 0.00 | 0.00 | 92 | 1023.3 |
| 20260902190756 | 69 | 87 | 2.0 | 9.0 | 0.00 | 0.00 | 0.00 | 93 | 1023.2 |
| 20260902190255 | 69 | 92 | 3.0 | 5.0 | 0.00 | 0.00 | 0.00 | 92 | 1023.2 |
| 20260902185751 | 68 | 87 | 2.0 | 3.0 | 0.00 | 0.00 | 0.00 | 93 | 1023.2 |
| 20260902185246 | 68 | 75 | 1.0 | 6.0 | 0.00 | 0.00 | 0.00 | 94 | 1023.6 |
| 20260902184743 | 68 | 38 | 3.0 | 5.0 | 0.00 | 0.00 | 0.00 | 93 | 1023.5 |
| 20260902184242 | 68 | 43 | 4.0 | 5.0 | 0.00 | 0.00 | 0.00 | 93 | 1023.5 |
| 20260902183738 | 68 | 30 | 3.0 | 5.0 | 0.00 | 0.00 | 0.00 | 92 | 1023.8 |
| 20260902183234 | 68 | 32 | 1.0 | 2.0 | 0.00 | 0.00 | 0.00 | 93 | 1023.5 |
| 20260902182730 | 68 | 352 | 1.0 | 5.0 | 0.00 | 0.00 | 0.00 | 93 | 1023.8 |
| 20260902182226 | 68 | 78 | 3.0 | 5.0 | 0.00 | 0.00 | 0.00 | 94 | 1023.6 |
| 20260902181723 | 68 | 103 | 1.0 | 1.0 | 0.00 | 0.00 | 0.00 | 94 | 1023.9 |
| 20260902181222 | 68 | 103 | 1.0 | 1.0 | 0.00 | 0.00 | 0.00 | 94 | 1023.8 |
| 20260902180717 | 67 | 23 | 3.0 | 5.0 | 0.00 | 0.00 | 0.00 | 94 | 1023.8 |
| 20260902180213 | 67 | 130 | 6.0 | 7.0 | 0.00 | 0.00 | 0.00 | 94 | 1023.5 |
| 20260902175708 | 67 | 71 | 2.0 | 8.0 | 0.00 | 0.00 | 0.00 | 94 | 1023.4 |
| 20260902175204 | 67 | 65 | 1.0 | 8.0 | 0.00 | 0.00 | 0.00 | 94 | 1023.3 |
| 20260902174659 | 67 | 48 | 3.0 | 3.0 | 0.00 | 0.00 | 0.00 | 94 | 1023.3 |
| 20260902174155 | 66 | 73 | 4.0 | 6.0 | 0.00 | 0.00 | 0.00 | 94 | 1023.5 |
| 20260902173650 | 66 | 169 | 2.0 | 2.0 | 0.00 | 0.00 | 0.00 | 95 | 1023.6 |
| 20260902173145 | 66 | 169 | 2.0 | 2.0 | 0.00 | 0.00 | 0.00 | 95 | 1023.9 |
| 20260902172639 | 65 | 255 | 1.0 | 1.0 | 0.00 | 0.00 | 0.00 | 95 | 1023.9 |
| 20260902172139 | 65 | 122 | 2.0 | 10.0 | 0.00 | 0.00 | 0.00 | 95 | 1023.9 |
| 20260902171634 | 65 | 4 | 1.0 | 3.0 | 0.00 | 0.00 | 0.00 | 95 | 1023.5 |
| 20260902171130 | 65 | 326 | 3.0 | 5.0 | 0.00 | 0.00 | 0.00 | 95 | 1023.6 |
| 20260902170625 | 65 | 95 | 4.0 | 10.0 | 0.00 | 0.00 | 0.00 | 95 | 1023.1 |
| 20260902170121 | 65 | 67 | 3.0 | 11.0 | 0.00 | 0.00 | 0.00 | 96 | 1022.8 |
| 20260902165621 | 65 | 84 | 1.0 | 6.0 | 0.00 | 0.00 | 0.00 | 96 | 1023.2 |
| 20260902165115 | 64 | 72 | 2.0 | 5.0 | 0.00 | 0.00 | 0.00 | 96 | 1023.5 |
| 20260902164610 | 64 | 286 | 0.0 | 1.0 | 0.00 | 0.00 | 0.00 | 96 | 1024.0 |
| 20260902164109 | 64 | 57 | 1.0 | 2.0 | 0.00 | 0.00 | 0.00 | 96 | 1024.0 |
| 20260902163605 | 64 | 129 | 4.0 | 7.0 | 0.00 | 0.00 | 0.00 | 96 | 1023.9 |
| 20260902163103 | 64 | 115 | 3.0 | 6.0 | 0.00 | 0.00 | 0.00 | 96 | 1023.9 |
| 20260902162603 | 64 | 118 | 4.0 | 9.0 | 0.00 | 0.00 | 0.00 | 96 | 1023.6 |
| 20260902162058 | 64 | 125 | 2.0 | 3.0 | 0.00 | 0.00 | 0.00 | 96 | 1024.0 |
| 20260902161552 | 65 | 244 | 1.0 | 2.0 | 0.00 | 0.00 | 0.00 | 96 | 1024.6 |
| 20260902161048 | 65 | 58 | 3.0 | 3.0 | 0.00 | 0.00 | 0.00 | 96 | 1024.6 |
| 20260902160544 | 65 | 55 | 1.0 | 6.0 | 0.00 | 0.00 | 0.00 | 96 | 1024.4 |
| 20260902160039 | 65 | 116 | 2.0 | 3.0 | 0.00 | 0.00 | 0.00 | 95 | 1024.5 |
| 20260902155532 | 65 | 92 | 1.0 | 2.0 | 0.00 | 0.00 | 0.00 | 96 | 1024.5 |
| 20260902155031 | 65 | 158 | 1.0 | 2.0 | 0.00 | 0.00 | 0.00 | 96 | 1024.4 |
| 20260902154527 | 65 | 40 | 2.0 | 3.0 | 0.00 | 0.00 | 0.00 | 96 | 1024.4 |
| 20260902154021 | 65 | 102 | 6.0 | 8.0 | 0.00 | 0.00 | 0.00 | 95 | 1024.2 |
| 20260902153520 | 65 | 10 | 2.0 | 5.0 | 0.00 | 0.00 | 0.00 | 95 | 1024.2 |
| 20260902153015 | 65 | 80 | 1.0 | 3.0 | 0.00 | 0.00 | 0.00 | 95 | 1024.3 |
| 20260902152512 | 65 | 105 | 0.0 | 1.0 | 0.00 | 0.00 | 0.00 | 95 | 1024.3 |
| 20260902152007 | 65 | 122 | 1.0 | 3.0 | 0.00 | 0.00 | 0.00 | 96 | 1024.3 |
| 20260902151503 | 65 | 180 | 0.0 | 7.0 | 0.00 | 0.00 | 0.00 | 96 | 1024.5 |
| 20260902150957 | 65 | 118 | 2.0 | 6.0 | 0.00 | 0.00 | 0.00 | 95 | 1024.7 |
| 20260902150452 | 65 | 29 | 1.0 | 3.0 | 0.00 | 0.00 | 0.00 | 96 | 1024.8 |
| 20260902145952 | 65 | 19 | 2.0 | 3.0 | 0.00 | 0.00 | 0.00 | 95 | 1025.0 |
| 20260902145447 | 65 | 114 | 1.0 | 3.0 | 0.00 | 0.00 | 0.00 | 95 | 1024.8 |
| 20260902144941 | 65 | 127 | 1.0 | 5.0 | 0.00 | 0.00 | 0.00 | 95 | 1025.0 |
| 20260902144437 | 65 | 41 | 1.0 | 2.0 | 0.00 | 0.00 | 0.00 | 95 | 1024.9 |
| 20260902143932 | 64 | 164 | 2.0 | 2.0 | 0.00 | 0.00 | 0.00 | 95 | 1025.1 |
| 20260902143427 | 65 | 134 | 1.0 | 5.0 | 0.00 | 0.00 | 0.00 | 96 | 1025.0 |
| 20260902142923 | 64 | 347 | 1.0 | 6.0 | 0.00 | 0.00 | 0.00 | 96 | 1024.6 |
| 20260902142419 | 64 | 32 | 1.0 | 1.0 | 0.00 | 0.00 | 0.00 | 96 | 1024.9 |
| 20260902141914 | 64 | 38 | 0.0 | 2.0 | 0.00 | 0.00 | 0.00 | 96 | 1024.8 |
| 20260902141409 | 64 | 32 | 0.0 | 5.0 | 0.00 | 0.00 | 0.00 | 96 | 1024.7 |
| 20260902140908 | 65 | 111 | 2.0 | 3.0 | 0.00 | 0.00 | 0.00 | 96 | 1024.7 |
| 20260902140404 | 65 | 113 | 1.0 | 3.0 | 0.00 | 0.00 | 0.00 | 96 | 1024.6 |
| 20260902135858 | 65 | 121 | 1.0 | 3.0 | 0.00 | 0.00 | 0.00 | 96 | 1024.8 |
| 20260902135354 | 65 | 55 | 1.0 | 1.0 | 0.00 | 0.00 | 0.00 | 96 | 1024.8 |
| 20260902134853 | 64 | 31 | 0.0 | 1.0 | 0.00 | 0.00 | 0.00 | 96 | 1024.8 |
| 20260902134349 | 64 | 31 | 0.0 | 0.0 | 0.00 | 0.00 | 0.00 | 96 | 1024.4 |
| 20260902133843 | 64 | 64 | 1.0 | 2.0 | 0.00 | 0.00 | 0.00 | 96 | 1024.5 |
| 20260902133343 | 64 | 359 | 1.0 | 1.0 | 0.00 | 0.00 | 0.00 | 96 | 1024.6 |
| 20260902132838 | 64 | 17 | 0.0 | 0.0 | 0.00 | 0.00 | 0.00 | 96 | 1024.6 |
| 20260902132333 | 64 | 354 | 0.0 | 2.0 | 0.00 | 0.00 | 0.00 | 96 | 1024.3 |
| 20260902131829 | 64 | 55 | 1.0 | 2.0 | 0.00 | 0.00 | 0.00 | 96 | 1024.4 |
| 20260902131326 | 64 | 288 | 0.0 | 1.0 | 0.00 | 0.00 | 0.00 | 96 | 1024.5 |
| 20260902130825 | 64 | 17 | 0.0 | 1.0 | 0.00 | 0.00 | 0.00 | 96 | 1024.7 |
| 20260902130321 | 64 | 3 | 1.0 | 1.0 | 0.00 | 0.00 | 0.00 | 96 | 1024.6 |
| 20260902125816 | 64 | 66 | 1.0 | 2.0 | 0.00 | 0.00 | 0.00 | 96 | 1024.9 |
| 20260902125312 | 64 | 66 | 1.0 | 2.0 | 0.00 | 0.00 | 0.00 | 96 | 1024.9 |
| 20260902124808 | 64 | 35 | 1.0 | 2.0 | 0.00 | 0.00 | 0.00 | 96 | 1024.7 |
| 20260902124303 | 63 | 105 | 3.0 | 5.0 | 0.00 | 0.00 | 0.00 | 96 | 1024.4 |
| 20260902123758 | 64 | 122 | 3.0 | 3.0 | 0.00 | 0.00 | 0.00 | 97 | 1024.5 |
| 20260902123254 | 63 | 29 | 0.0 | 1.0 | 0.00 | 0.00 | 0.00 | 97 | 1024.4 |
| 20260902122752 | 63 | 95 | 1.0 | 1.0 | 0.00 | 0.00 | 0.00 | 97 | 1024.5 |
| 20260902122249 | 63 | 18 | 1.0 | 1.0 | 0.00 | 0.00 | 0.00 | 97 | 1024.5 |
| 20260902121743 | 63 | 18 | 1.0 | 1.0 | 0.00 | 0.00 | 0.00 | 97 | 1024.3 |
| 20260902121238 | 63 | 18 | 1.0 | 1.0 | 0.00 | 0.00 | 0.00 | 97 | 1024.5 |
| 20260902120733 | 63 | 18 | 1.0 | 1.0 | 0.00 | 0.00 | 0.00 | 97 | 1024.2 |
| 20260902120229 | 63 | 16 | 1.0 | 2.0 | 0.00 | 0.00 | 0.00 | 97 | 1024.2 |
| 20260902115724 | 63 | 85 | 2.0 | 3.0 | 0.00 | 0.00 | 0.00 | 97 | 1024.2 |
| 20260902115220 | 63 | 109 | 1.0 | 1.0 | 0.00 | 0.00 | 0.00 | 97 | 1024.2 |
| 20260902114716 | 63 | 49 | 0.0 | 1.0 | 0.00 | 0.00 | 0.00 | 97 | 1024.3 |
| 20260902114211 | 63 | 91 | 2.0 | 3.0 | 0.00 | 0.00 | 0.00 | 97 | 1024.1 |
| 20260902113706 | 63 | 67 | 3.0 | 3.0 | 0.00 | 0.00 | 0.00 | 97 | 1024.0 |
| 20260902113201 | 63 | 67 | 3.0 | 3.0 | 0.00 | 0.00 | 0.00 | 97 | 1024.1 |
| 20260902112701 | 62 | 88 | 3.0 | 5.0 | 0.00 | 0.00 | 0.00 | 97 | 1024.0 |
| 20260902112158 | 62 | 77 | 3.0 | 3.0 | 0.00 | 0.00 | 0.00 | 97 | 1024.1 |
| 20260902111654 | 62 | 82 | 2.0 | 2.0 | 0.00 | 0.00 | 0.00 | 97 | 1023.8 |
| 20260902111149 | 62 | 35 | 4.0 | 7.0 | 0.00 | 0.00 | 0.00 | 97 | 1023.9 |
| 20260902110645 | 62 | 35 | 1.0 | 6.0 | 0.00 | 0.00 | 0.00 | 97 | 1024.0 |
| 20260902110141 | 62 | 64 | 1.0 | 2.0 | 0.00 | 0.00 | 0.00 | 98 | 1024.0 |
| 20260902105640 | 62 | 347 | 0.0 | 0.0 | 0.00 | 0.00 | 0.00 | 98 | 1024.3 |
| 20260902105136 | 62 | 20 | 1.0 | 1.0 | 0.00 | 0.00 | 0.00 | 97 | 1024.5 |
| 20260902104631 | 62 | 20 | 1.0 | 1.0 | 0.00 | 0.00 | 0.00 | 97 | 1024.4 |
| 20260902104126 | 62 | 20 | 1.0 | 1.0 | 0.00 | 0.00 | 0.00 | 97 | 1024.4 |
| 20260902103625 | 62 | 91 | 1.0 | 1.0 | 0.00 | 0.00 | 0.00 | 97 | 1024.5 |
| 20260902103121 | 62 | 35 | 0.0 | 0.0 | 0.00 | 0.00 | 0.00 | 97 | 1024.5 |
| 20260902102617 | 62 | 42 | 1.0 | 1.0 | 0.00 | 0.00 | 0.00 | 97 | 1024.2 |
| 20260902102114 | 62 | 77 | 2.0 | 2.0 | 0.00 | 0.00 | 0.00 | 97 | 1024.1 |
| 20260902101609 | 63 | 107 | 2.0 | 2.0 | 0.00 | 0.00 | 0.00 | 97 | 1024.2 |
| 20260902101109 | 63 | 27 | 1.0 | 1.0 | 0.00 | 0.00 | 0.00 | 97 | 1024.4 |
| 20260902100603 | 62 | 41 | 0.0 | 0.0 | 0.00 | 0.00 | 0.00 | 97 | 1024.3 |
| 20260902100058 | 63 | 20 | 0.0 | 1.0 | 0.00 | 0.00 | 0.00 | 97 | 1024.3 |
| 20260902095557 | 63 | 79 | 2.0 | 3.0 | 0.00 | 0.00 | 0.00 | 97 | 1024.2 |
| 20260902095056 | 63 | 26 | 1.0 | 2.0 | 0.00 | 0.00 | 0.00 | 97 | 1023.9 |
| 20260902094547 | 63 | 119 | 2.0 | 2.0 | 0.00 | 0.00 | 0.00 | 97 | 1024.2 |
| 20260902094042 | 63 | 12 | 0.0 | 3.0 | 0.00 | 0.00 | 0.00 | 97 | 1024.3 |